Time,TemperatureF,DewpointF,PressureIn,WindDirection,WindDirectionDegrees,WindSpeedMPH,WindSpeedGustMPH,Humidity,HourlyPrecipIn,Conditions,Clouds,dailyrainin,SoftwareType,DateUTC
2013-02-11 00:01:00,39.0,37.0,-100.00,ENE,70,0.0,1.0,92,-99.99,,,-99.99,,2013-02-11 08:01:00,
2013-02-11 00:10:00,39.0,37.0,-100.00,North,355,0.0,1.0,92,-99.99,,,-99.99,,2013-02-11 08:10:00,
2013-02-11 01:01:00,39.0,37.0,-100.00,North,355,0.0,1.0,92,-99.99,,,-99.99,,2013-02-11 09:01:00,
2013-02-11 01:10:00,39.0,37.0,-100.00,ESE,105,2.0,2.0,92,-99.99,,,-99.99,,2013-02-11 09:10:00,
2013-02-11 02:01:00,39.0,37.0,-100.00,ESE,105,2.0,2.0,92,-99.99,,,-99.99,,2013-02-11 10:01:00,
2013-02-11 02:10:00,39.0,37.0,-100.00,SE,125,2.0,3.0,92,-99.99,,,-99.99,,2013-02-11 10:10:00,
2013-02-11 03:01:00,39.0,37.0,-100.00,SE,125,2.0,3.0,92,-99.99,,,-99.99,,2013-02-11 11:01:00,
2013-02-11 03:10:00,38.0,37.0,-100.00,NE,55,0.0,2.0,96,-99.99,,,-99.99,,2013-02-11 11:10:00,
2013-02-11 04:03:00,38.0,37.0,-100.00,NE,55,0.0,2.0,96,-99.99,,,-99.99,,2013-02-11 12:03:00,
2013-02-11 04:10:00,37.0,37.0,-100.00,North,355,0.0,1.0,100,-99.99,,,-99.99,,2013-02-11 12:10:00,
2013-02-11 05:01:00,37.0,37.0,-100.00,North,355,0.0,1.0,100,-99.99,,,-99.99,,2013-02-11 13:01:00,
2013-02-11 05:10:00,37.0,36.0,-100.00,ESE,120,1.0,3.0,96,-99.99,,,-99.99,,2013-02-11 13:10:00,
2013-02-11 06:01:00,37.0,36.0,-100.00,ESE,120,1.0,3.0,96,-99.99,,,-99.99,,2013-02-11 14:01:00,
2013-02-11 06:10:00,37.0,36.0,-100.00,NE,50,0.0,3.0,96,-99.99,,,-99.99,,2013-02-11 14:10:00,
2013-02-11 07:01:00,37.0,36.0,-100.00,NE,50,0.0,3.0,96,-99.99,,,-99.99,,2013-02-11 15:01:00,
2013-02-11 07:10:00,37.0,36.0,-100.00,ESE,110,2.0,6.0,96,-99.99,,,-99.99,,2013-02-11 15:10:00,
2013-02-11 08:01:00,37.0,36.0,-100.00,ESE,110,2.0,6.0,96,-99.99,,,-99.99,,2013-02-11 16:01:00,
2013-02-11 08:10:00,38.0,37.0,-100.00,ESE,110,3.0,6.0,96,-99.99,,,-99.99,,2013-02-11 16:10:00,
2013-02-11 09:01:00,38.0,37.0,-100.00,ESE,110,3.0,6.0,96,-99.99,,,-99.99,,2013-02-11 17:01:00,
2013-02-11 09:10:00,39.0,37.0,-100.00,North,-999,0.0,0.0,92,-99.99,,,-99.99,,2013-02-11 17:10:00,
2013-02-11 10:01:00,39.0,37.0,-100.00,North,-999,0.0,0.0,92,-99.99,,,-99.99,,2013-02-11 18:01:00,
2013-02-11 10:10:00,42.0,37.0,-100.00,South,175,0.0,3.0,82,-99.99,,,-99.99,,2013-02-11 18:10:00,
2013-02-11 11:02:00,42.0,37.0,-100.00,South,175,0.0,3.0,82,-99.99,,,-99.99,,2013-02-11 19:02:00,
2013-02-11 11:10:00,44.0,37.0,-100.00,WSW,255,1.0,7.0,76,-99.99,,,-99.99,,2013-02-11 19:10:00,
2013-02-11 12:01:00,44.0,37.0,-100.00,WSW,255,1.0,7.0,76,-99.99,,,-99.99,,2013-02-11 20:01:00,
2013-02-11 12:10:00,44.0,36.0,-100.00,NNW,335,1.0,5.0,73,-99.99,,,-99.99,,2013-02-11 20:10:00,
2013-02-11 13:02:00,44.0,36.0,-100.00,NNW,335,1.0,5.0,73,-99.99,,,-99.99,,2013-02-11 21:02:00,
2013-02-11 13:10:00,46.0,37.0,-100.00,NNW,330,1.0,5.0,70,-99.99,,,-99.99,,2013-02-11 21:10:00,
2013-02-11 14:01:00,46.0,37.0,-100.00,NNW,330,1.0,5.0,70,-99.99,,,-99.99,,2013-02-11 22:01:00,
2013-02-11 14:10:00,46.0,37.0,-100.00,NW,320,1.0,6.0,70,-99.99,,,-99.99,,2013-02-11 22:10:00,
2013-02-11 15:01:00,46.0,37.0,-100.00,NW,320,1.0,6.0,70,-99.99,,,-99.99,,2013-02-11 23:01:00,
2013-02-11 15:10:00,46.0,37.0,-100.00,West,270,2.0,6.0,70,-99.99,,,-99.99,,2013-02-11 23:10:00,
2013-02-11 16:01:00,46.0,37.0,-100.00,West,270,2.0,6.0,70,-99.99,,,-99.99,,2013-02-12 00:01:00,
2013-02-11 16:10:00,46.0,38.0,-100.00,NNW,345,1.0,2.0,73,-99.99,,,-99.99,,2013-02-12 00:10:00,
2013-02-11 17:01:00,46.0,38.0,-100.00,NNW,345,1.0,2.0,73,-99.99,,,-99.99,,2013-02-12 01:01:00,
2013-02-11 17:10:00,44.0,39.0,-100.00,NW,310,1.0,2.0,82,-99.99,,,-99.99,,2013-02-12 01:10:00,
2013-02-11 18:01:00,44.0,39.0,-100.00,NW,310,1.0,2.0,82,-99.99,,,-99.99,,2013-02-12 02:01:00,
2013-02-11 18:10:00,43.0,39.0,-100.00,NE,55,0.0,2.0,85,-99.99,,,-99.99,,2013-02-12 02:10:00,
2013-02-11 19:02:00,43.0,39.0,-100.00,NE,55,0.0,2.0,85,-99.99,,,-99.99,,2013-02-12 03:02:00,
2013-02-11 19:10:00,42.0,38.0,-100.00,East,100,1.0,2.0,85,-99.99,,,-99.99,,2013-02-12 03:10:00,
2013-02-11 20:01:00,42.0,38.0,-100.00,East,100,1.0,2.0,85,-99.99,,,-99.99,,2013-02-12 04:01:00,
2013-02-11 20:10:00,41.0,39.0,-100.00,East,95,2.0,3.0,92,-99.99,,,-99.99,,2013-02-12 04:10:00,
2013-02-11 21:01:00,41.0,39.0,-100.00,East,95,2.0,3.0,92,-99.99,,,-99.99,,2013-02-12 05:01:00,
2013-02-11 21:10:00,40.0,38.0,-100.00,East,100,6.0,7.0,92,-99.99,,,-99.99,,2013-02-12 05:10:00,
2013-02-11 22:01:00,40.0,38.0,-100.00,East,100,6.0,7.0,92,-99.99,,,-99.99,,2013-02-12 06:01:00,
2013-02-11 22:10:00,40.0,38.0,-100.00,ENE,75,0.0,3.0,92,-99.99,,,-99.99,,2013-02-12 06:10:00,
2013-02-11 23:01:00,40.0,38.0,-100.00,ENE,75,0.0,3.0,92,-99.99,,,-99.99,,2013-02-12 07:01:00,
2013-02-11 23:10:00,40.0,38.0,-100.00,NNE,30,0.0,3.0,92,-99.99,,,-99.99,,2013-02-12 07:10:00,